Location: Most
(50.5133°N, 13.6207°E)
Time: 03:12:36
(UTC+01:00)

Oscar 11 - Pass Details

Date: 06 December 2021
Orbit: 611 x 625 km, 97.6° (Epoch: 17 January)

Event Time Altitude Azimuth Distance (km) Brightness Sun altitude
Rises 06:27:49 0° 6° (N) 2,920 10.4 -12.5°
Reaches altitude 10° 06:30:09 10° 358° (N) 2,006 9.5 -12.1°
Maximum altitude 06:34:06 34° 293° (WNW) 1,028 7.7 -11.5°
Drops below altitude 10° 06:38:00 10° 229° (SW) 1,985 9.4 -10.9°
Sets 06:40:18 0° 220° (SW) 2,883 10.3 -10.6°
